QPF
0.00 0.00 0.00 0.00 0.00 0.00 0.00 0.00 0.00 0.00 0.00 0.00 0.00 0.00 0.00 0.00 0.00 0.00 0.00 0.01 0.01 0.01 0.01 0.01 0.00 0.00 0.00 0.00 0.00 0.00 0.01 0.01 0.01 0.00 0.00 0.00 0.00 0.00 0.00 0.00 0.00 0.00 0.00
0.00 0.00 0.00 0.00 0.00 0.00 0.00 0.00 0.00 0.00 0.00 0.00 0.00 0.00 0.00 0.00 0.00 0.00 0.00 0.00 0.00 0.00 0.00 0.00 0.00 0.00 0.00 0.00 0.00 0.00 0.00 0.00 0.01 0.00 0.00 0.00 0.00 0.00 0.00 0.00 0.00 0.00 0.00
0.00 0.00 0.00 0.00 0.00 0.00 0.00 0.00 0.00 0.00 0.00 0.00 0.00 0.00 0.00 0.00 0.00 0.00 0.00 0.00 0.00 0.00 0.00 0.00 0.00 0.00 0.00 0.00 0.00 0.00 0.00 0.00 0.00 0.00 0.00 0.00 0.00 0.00 0.00 0.00 0.00 0.00 0.00
0.00 0.00 0.00 0.00 0.00 0.00 0.00 0.00 0.00 0.00 0.00 0.00 0.00 0.00 0.00 0.00 0.00 0.00 0.00 0.00 0.00 0.00 0.00 0.00 0.00 0.00 0.00 0.00 0.00 0.00 0.00 0.00 0.00 0.00 0.00 0.00 0.00 0.00 0.00 0.00 0.00 0.00 0.00
0.00 0.00 0.00 0.00 0.00 0.00 0.00 0.00 0.00 0.00 0.00 0.00 0.00 0.00 0.00 0.00 0.00 0.00 0.00 0.00 0.00 0.00 0.00 0.00 0.00 0.00 0.00 0.00 0.00 0.00 0.00 0.00 0.00 0.00 0.00 0.00 0.00 0.00 0.00 0.00 0.00 0.00 0.00
0.00 0.00 0.00 0.00 0.00 0.00 0.00 0.00 0.00 0.00 0.00 0.00 0.00 0.00 0.00 0.00 0.00 0.00 0.00 0.00 0.00 0.00 0.00 0.00 0.00 0.00 0.00 0.00 0.00 0.00 0.00 0.00 0.00 0.00 0.00 0.00 0.00 0.00 0.00 0.00 0.00 0.01 0.00
0.00 0.00 0.00 0.00 0.00 0.00 0.00 0.00 0.00 0.00 0.00 0.00 0.00 0.00 0.00 0.00 0.00 0.00 0.00 0.00 0.00 0.00 0.00 0.00 0.00 0.00 0.00 0.00 0.00 0.00 0.00 0.00 0.00 0.00 0.00 0.00 0.00 0.00 0.01 0.01 0.01 0.01 0.01
0.00 0.00 0.00 0.00 0.00 0.00 0.00 0.00 0.00 0.00 0.00 0.00 0.00 0.00 0.00 0.00 0.00 0.00 0.00 0.00 0.00 0.00 0.00 0.00 0.00 0.00 0.00 0.00 0.00 0.00 0.00 0.00 0.00 0.00 0.00 0.00 0.00 0.00 0.01 0.01 0.01 0.01 0.00
0.00 0.00 0.00 0.00 0.00 0.00 0.00 0.00 0.00 0.00 0.00 0.00 0.00 0.00 0.00 0.00 0.00 0.00 0.00 0.00 0.00 0.00 0.00 0.00 0.00 0.00 0.00 0.00 0.00 0.00 0.00 0.00 0.00 0.00 0.00 0.00 0.00 0.00 0.00 0.01 0.01 0.01 0.01
0.00 0.00 0.00 0.00 0.00 0.00 0.00 0.00 0.00 0.00 0.00 0.00 0.00 0.00 0.00 0.00 0.00 0.00 0.00 0.00 0.00 0.00 0.00 0.00 0.00 0.00 0.00 0.00 0.00 0.00 0.00 0.00 0.00 0.00 0.00 0.00 0.00 0.00 0.00 0.00 0.01 0.03 0.02
0.00 0.00 0.00 0.00 0.00 0.00 0.00 0.00 0.00 0.00 0.00 0.00 0.00 0.00 0.00 0.00 0.00 0.00 0.00 0.00 0.00 0.00 0.00 0.00 0.00 0.00 0.00 0.00 0.00 0.00 0.00 0.00 0.00 0.00 0.00 0.00 0.00 0.00 0.00 0.00 0.01 0.02 0.03
0.00 0.00 0.00 0.00 0.00 0.00 0.00 0.00 0.00 0.00 0.00 0.00 0.00 0.00 0.00 0.00 0.00 0.00 0.00 0.00 0.00 0.00 0.00 0.00 0.00 0.00 0.00 0.00 0.00 0.00 0.00 0.00 0.00 0.00 0.00 0.00 0.00 0.00 0.00 0.00 0.00 0.01 0.01
0.00 0.00 0.00 0.00 0.00 0.00 0.00 0.00 0.00 0.00 0.00 0.00 0.00 0.00 0.00 0.00 0.00 0.00 0.00 0.00 0.00 0.00 0.00 0.00 0.00 0.00 0.00 0.00 0.00 0.00 0.00 0.00 0.00 0.00 0.00 0.00 0.00 0.00 0.00 0.00 0.00 0.01 0.01
0.00 0.00 0.00 0.00 0.00 0.00 0.00 0.00 0.00 0.00 0.00 0.00 0.00 0.00 0.00 0.00 0.00 0.00 0.00 0.00 0.00 0.00 0.00 0.00 0.00 0.00 0.00 0.00 0.00 0.00 0.00 0.00 0.00 0.00 0.00 0.00 0.00 0.00 0.00 0.00 0.01 0.01 0.01
0.00 0.00 0.00 0.00 0.00 0.00 0.00 0.00 0.00 0.00 0.00 0.00 0.00 0.00 0.00 0.00 0.00 0.00 0.00 0.00 0.00 0.00 0.00 0.00 0.00 0.00 0.00 0.00 0.00 0.00 0.00 0.00 0.00 0.00 0.00 0.00 0.00 0.00 0.00 0.01 0.01 0.01 0.01
0.00 0.00 0.00 0.00 0.00 0.00 0.00 0.00 0.00 0.00 0.00 0.00 0.00 0.00 0.00 0.00 0.00 0.00 0.00 0.00 0.00 0.00 0.00 0.00 0.00 0.00 0.00 0.00 0.00 0.00 0.00 0.00 0.00 0.00 0.00 0.00 0.01 0.01 0.01 0.01 0.01 0.01 0.01
0.00 0.00 0.00 0.00 0.00 0.00 0.00 0.00 0.00 0.00 0.00 0.00 0.00 0.00 0.00 0.00 0.00 0.00 0.00 0.00 0.00 0.00 0.00 0.00 0.00 0.00 0.00 0.00 0.00 0.00 0.00 0.00 0.00 0.00 0.01 0.01 0.01 0.01 0.01 0.01 0.01 0.01 0.01
0.00 0.00 0.00 0.00 0.00 0.00 0.00 0.00 0.00 0.00 0.00 0.00 0.00 0.00 0.00 0.00 0.00 0.00 0.00 0.00 0.00 0.00 0.00 0.00 0.00 0.00 0.00 0.00 0.00 0.00 0.00 0.00 0.00 0.00 0.01 0.01 0.01 0.01 0.01 0.01 0.01 0.01 0.01
0.00 0.00 0.00 0.00 0.00 0.00 0.00 0.00 0.00 0.00 0.00 0.00 0.00 0.00 0.00 0.00 0.00 0.00 0.00 0.00 0.00 0.00 0.00 0.00 0.00 0.00 0.00 0.00 0.00 0.00 0.00 0.00 0.00 0.01 0.01 0.01 0.01 0.01 0.01 0.01 0.01 0.01 0.01
0.00 0.00 0.00 0.00 0.00 0.00 0.00 0.00 0.00 0.00 0.00 0.00 0.00 0.00 0.00 0.00 0.00 0.00 0.00 0.00 0.00 0.00 0.00 0.00 0.00 0.00 0.00 0.00 0.00 0.00 0.00 0.00 0.00 0.01 0.01 0.01 0.01 0.01 0.01 0.01 0.01 0.01 0.01
0.00 0.00 0.00 0.00 0.00 0.00 0.00 0.00 0.00 0.00 0.00 0.00 0.00 0.00 0.00 0.00 0.00 0.00 0.00 0.00 0.00 0.00 0.00 0.00 0.00 0.00 0.00 0.00 0.00 0.00 0.00 0.00 0.00 0.01 0.01 0.01 0.01 0.01 0.01 0.01 0.01 0.01 0.01
0.00 0.00 0.00 0.00 0.00 0.00 0.00 0.00 0.00 0.00 0.00 0.00 0.00 0.00 0.00 0.00 0.00 0.00 0.00 0.00 0.00 0.00 0.00 0.00 0.00 0.00 0.00 0.00 0.00 0.00 0.00 0.00 0.00 0.01 0.01 0.01 0.01 0.01 0.01 0.01 0.01 0.01 0.01
0.00 0.00 0.00 0.00 0.00 0.00 0.00 0.00 0.00 0.00 0.00 0.00 0.00 0.00 0.00 0.00 0.00 0.00 0.00 0.00 0.00 0.00 0.00 0.00 0.00 0.00 0.00 0.00 0.00 0.00 0.00 0.00 0.01 0.01 0.01 0.01 0.01 0.01 0.01 0.01 0.01 0.01 0.01
0.00 0.00 0.00 0.00 0.00 0.00 0.00 0.00 0.00 0.00 0.00 0.00 0.00 0.00 0.00 0.00 0.00 0.00 0.00 0.00 0.00 0.00 0.00 0.00 0.00 0.00 0.00 0.00 0.00 0.00 0.00 0.00 0.01 0.01 0.01 0.01 0.01 0.01 0.01 0.01 0.01 0.01 0.01
0.00 0.00 0.00 0.01 0.01 0.01 0.01 0.01 0.01 0.01 0.01 0.01 0.01 0.01 0.01 0.01 0.01 0.01 0.01 0.01 0.00 0.00 0.00 0.00 0.00 0.00 0.00 0.00 0.00 0.00 0.00 0.00 0.00 0.01 0.01 0.01 0.01 0.01 0.01 0.01 0.01 0.01 0.01
0.01 0.01 0.01 0.01 0.01 0.01 0.01 0.01 0.01 0.01 0.01 0.01 0.01 0.01 0.01 0.01 0.01 0.01 0.01 0.01 0.01 0.00 0.00 0.00 0.00 0.00 0.00 0.00 0.00 0.00 0.00 0.00 0.00 0.01 0.01 0.01 0.01 0.01 0.01 0.01 0.01 0.01 0.01
MSLP
1014.75 1014.96 1015.26 1015.65 1016.13 1016.67 1017.27 1017.92 1018.58 1019.26 1019.93 1020.60 1021.24 1021.85 1022.45 1023.03 1023.61 1024.19 1024.78 1025.39 1026.02 1026.64 1027.25 1027.83 1028.34 1028.78 1029.13 1029.39 1029.57 1029.68 1029.73 1029.76 1029.75 1029.73 1029.68 1029.60 1029.46 1029.25 1028.97 1028.60 1028.15 1027.64 1027.08
1014.90 1015.09 1015.37 1015.75 1016.22 1016.78 1017.41 1018.08 1018.79 1019.52 1020.24 1020.95 1021.63 1022.28 1022.90 1023.50 1024.09 1024.67 1025.27 1025.87 1026.49 1027.11 1027.70 1028.27 1028.77 1029.20 1029.54 1029.79 1029.96 1030.06 1030.11 1030.11 1030.08 1030.02 1029.93 1029.80 1029.61 1029.35 1029.02 1028.61 1028.13 1027.59 1027.01
1015.13 1015.34 1015.63 1016.02 1016.49 1017.05 1017.69 1018.38 1019.10 1019.85 1020.60 1021.33 1022.03 1022.70 1023.34 1023.95 1024.55 1025.13 1025.72 1026.32 1026.92 1027.51 1028.09 1028.62 1029.10 1029.51 1029.84 1030.07 1030.23 1030.32 1030.35 1030.33 1030.27 1030.18 1030.05 1029.87 1029.63 1029.33 1028.96 1028.52 1028.02 1027.47 1026.90
1015.40 1015.66 1015.98 1016.39 1016.88 1017.44 1018.07 1018.75 1019.47 1020.22 1020.96 1021.69 1022.41 1023.08 1023.73 1024.35 1024.94 1025.53 1026.11 1026.69 1027.26 1027.82 1028.36 1028.86 1029.31 1029.68 1029.98 1030.20 1030.33 1030.40 1030.41 1030.37 1030.29 1030.16 1030.00 1029.78 1029.51 1029.18 1028.80 1028.35 1027.86 1027.34 1026.80
1015.65 1015.99 1016.37 1016.81 1017.32 1017.88 1018.49 1019.16 1019.86 1020.58 1021.31 1022.03 1022.73 1023.41 1024.05 1024.67 1025.27 1025.85 1026.42 1026.97 1027.52 1028.04 1028.54 1028.99 1029.38 1029.71 1029.96 1030.14 1030.25 1030.29 1030.28 1030.22 1030.12 1029.97 1029.78 1029.55 1029.27 1028.95 1028.57 1028.16 1027.71 1027.24 1026.76
1015.86 1016.29 1016.75 1017.23 1017.76 1018.32 1018.92 1019.56 1020.23 1020.92 1021.62 1022.33 1023.02 1023.69 1024.33 1024.95 1025.54 1026.12 1026.67 1027.20 1027.70 1028.17 1028.61 1029.00 1029.33 1029.60 1029.80 1029.93 1030.00 1030.01 1029.97 1029.89 1029.78 1029.62 1029.43 1029.21 1028.94 1028.65 1028.31 1027.95 1027.57 1027.18 1026.78
1015.99 1016.53 1017.06 1017.60 1018.15 1018.71 1019.31 1019.93 1020.58 1021.24 1021.92 1022.60 1023.28 1023.94 1024.58 1025.20 1025.78 1026.34 1026.87 1027.36 1027.82 1028.24 1028.61 1028.92 1029.18 1029.37 1029.51 1029.58 1029.61 1029.58 1029.52 1029.43 1029.30 1029.15 1028.97 1028.77 1028.55 1028.30 1028.03 1027.75 1027.46 1027.17 1026.86
1016.03 1016.67 1017.27 1017.86 1018.45 1019.03 1019.63 1020.25 1020.89 1021.54 1022.20 1022.87 1023.54 1024.19 1024.82 1025.42 1026.00 1026.53 1027.03 1027.49 1027.89 1028.24 1028.54 1028.78 1028.96 1029.08 1029.15 1029.16 1029.13 1029.07 1028.98 1028.87 1028.75 1028.60 1028.45 1028.28 1028.10 1027.92 1027.73 1027.53 1027.34 1027.14 1026.94
1015.99 1016.70 1017.37 1018.01 1018.63 1019.25 1019.87 1020.50 1021.15 1021.80 1022.46 1023.13 1023.78 1024.42 1025.04 1025.62 1026.17 1026.68 1027.14 1027.55 1027.90 1028.20 1028.42 1028.59 1028.70 1028.75 1028.76 1028.72 1028.64 1028.54 1028.43 1028.30 1028.17 1028.03 1027.89 1027.75 1027.62 1027.49 1027.37 1027.26 1027.15 1027.04 1026.93
1015.88 1016.63 1017.35 1018.04 1018.70 1019.37 1020.02 1020.69 1021.35 1022.02 1022.69 1023.35 1023.99 1024.62 1025.21 1025.77 1026.29 1026.76 1027.18 1027.55 1027.85 1028.09 1028.27 1028.39 1028.44 1028.44 1028.39 1028.30 1028.19 1028.05 1027.91 1027.76 1027.61 1027.47 1027.34 1027.22 1027.11 1027.02 1026.94 1026.89 1026.85 1026.81 1026.77
1015.72 1016.49 1017.23 1017.95 1018.67 1019.37 1020.08 1020.79 1021.49 1022.18 1022.86 1023.52 1024.15 1024.75 1025.31 1025.83 1026.31 1026.75 1027.13 1027.46 1027.73 1027.94 1028.09 1028.17 1028.20 1028.17 1028.09 1027.97 1027.82 1027.66 1027.49 1027.31 1027.14 1026.98 1026.83 1026.69 1026.59 1026.50 1026.44 1026.41 1026.41 1026.42 1026.43
1015.54 1016.30 1017.05 1017.79 1018.55 1019.31 1020.07 1020.82 1021.56 1022.28 1022.97 1023.62 1024.22 1024.79 1025.31 1025.79 1026.23 1026.63 1026.98 1027.29 1027.55 1027.75 1027.89 1027.97 1027.99 1027.96 1027.87 1027.74 1027.58 1027.39 1027.19 1026.98 1026.78 1026.57 1026.39 1026.22 1026.08 1025.97 1025.90 1025.86 1025.86 1025.89 1025.94
1015.39 1016.10 1016.84 1017.60 1018.39 1019.19 1020.00 1020.79 1021.57 1022.30 1022.99 1023.62 1024.20 1024.72 1025.20 1025.64 1026.04 1026.40 1026.74 1027.05 1027.31 1027.53 1027.69 1027.80 1027.85 1027.84 1027.77 1027.64 1027.47 1027.27 1027.04 1026.80 1026.54 1026.29 1026.05 1025.83 1025.64 1025.48 1025.37 1025.30 1025.28 1025.31 1025.37
1015.27 1015.94 1016.66 1017.43 1018.23 1019.07 1019.91 1020.73 1021.53 1022.27 1022.94 1023.55 1024.09 1024.57 1025.00 1025.40 1025.76 1026.12 1026.45 1026.77 1027.06 1027.32 1027.53 1027.69 1027.78 1027.81 1027.77 1027.66 1027.49 1027.28 1027.03 1026.75 1026.46 1026.15 1025.85 1025.57 1025.31 1025.09 1024.93 1024.81 1024.76 1024.77 1024.84
1015.22 1015.85 1016.55 1017.31 1018.12 1018.97 1019.83 1020.66 1021.46 1022.19 1022.84 1023.41 1023.91 1024.35 1024.74 1025.11 1025.46 1025.81 1026.16 1026.51 1026.84 1027.16 1027.43 1027.64 1027.79 1027.86 1027.86 1027.78 1027.62 1027.41 1027.14 1026.83 1026.50 1026.15 1025.80 1025.46 1025.15 1024.88 1024.65 1024.49 1024.41 1024.39 1024.45
1015.25 1015.84 1016.52 1017.27 1018.08 1018.93 1019.78 1020.61 1021.38 1022.08 1022.70 1023.23 1023.69 1024.09 1024.46 1024.81 1025.17 1025.53 1025.91 1026.30 1026.69 1027.06 1027.39 1027.66 1027.86 1027.98 1028.01 1027.95 1027.81 1027.60 1027.33 1027.01 1026.65 1026.28 1025.90 1025.53 1025.18 1024.87 1024.61 1024.41 1024.30 1024.26 1024.30
1015.34 1015.92 1016.58 1017.32 1018.11 1018.94 1019.76 1020.56 1021.29 1021.95 1022.53 1023.03 1023.45 1023.84 1024.19 1024.55 1024.91 1025.30 1025.72 1026.16 1026.60 1027.02 1027.40 1027.72 1027.96 1028.11 1028.17 1028.13 1028.00 1027.80 1027.53 1027.21 1026.86 1026.49 1026.10 1025.73 1025.38 1025.06 1024.79 1024.58 1024.45 1024.39 1024.42
1015.48 1016.06 1016.71 1017.43 1018.19 1018.98 1019.76 1020.50 1021.18 1021.79 1022.33 1022.79 1023.20 1023.57 1023.93 1024.30 1024.69 1025.12 1025.58 1026.06 1026.54 1027.00 1027.41 1027.76 1028.02 1028.19 1028.26 1028.24 1028.12 1027.93 1027.68 1027.39 1027.06 1026.72 1026.37 1026.03 1025.70 1025.41 1025.16 1024.96 1024.83 1024.77 1024.78
1015.66 1016.24 1016.87 1017.56 1018.28 1019.01 1019.72 1020.40 1021.02 1021.57 1022.06 1022.49 1022.89 1023.26 1023.64 1024.04 1024.47 1024.94 1025.43 1025.95 1026.45 1026.93 1027.36 1027.71 1027.98 1028.15 1028.23 1028.21 1028.11 1027.94 1027.73 1027.47 1027.20 1026.91 1026.62 1026.34 1026.07 1025.83 1025.62 1025.46 1025.35 1025.29 1025.30
1015.85 1016.42 1017.03 1017.67 1018.33 1018.98 1019.61 1020.21 1020.75 1021.25 1021.69 1022.10 1022.49 1022.88 1023.28 1023.71 1024.17 1024.67 1025.20 1025.73 1026.25 1026.73 1027.15 1027.50 1027.76 1027.92 1028.00 1027.99 1027.91 1027.78 1027.61 1027.41 1027.21 1027.00 1026.79 1026.59 1026.40 1026.23 1026.09 1025.97 1025.89 1025.86 1025.87
1016.01 1016.56 1017.13 1017.70 1018.28 1018.84 1019.38 1019.88 1020.35 1020.78 1021.19 1021.57 1021.95 1022.35 1022.77 1023.23 1023.72 1024.24 1024.78 1025.32 1025.84 1026.31 1026.72 1027.05 1027.30 1027.46 1027.54 1027.54 1027.50 1027.41 1027.30 1027.18 1027.05 1026.93 1026.81 1026.71 1026.61 1026.52 1026.45 1026.40 1026.37 1026.36 1026.38
1016.12 1016.62 1017.12 1017.61 1018.09 1018.55 1018.98 1019.40 1019.78 1020.15 1020.51 1020.86 1021.24 1021.64 1022.07 1022.54 1023.05 1023.58 1024.12 1024.65 1025.16 1025.62 1026.01 1026.33 1026.57 1026.73 1026.83 1026.87 1026.87 1026.84 1026.80 1026.75 1026.72 1026.68 1026.66 1026.65 1026.64 1026.64 1026.64 1026.65 1026.67 1026.71 1026.76
1016.13 1016.55 1016.96 1017.35 1017.73 1018.08 1018.42 1018.73 1019.04 1019.34 1019.65 1019.98 1020.33 1020.72 1021.15 1021.62 1022.13 1022.65 1023.18 1023.70 1024.19 1024.63 1025.01 1025.33 1025.58 1025.76 1025.89 1025.98 1026.04 1026.08 1026.12 1026.16 1026.20 1026.26 1026.32 1026.39 1026.46 1026.53 1026.60 1026.68 1026.76 1026.85 1026.94
1016.02 1016.34 1016.65 1016.94 1017.21 1017.46 1017.70 1017.93 1018.16 1018.40 1018.66 1018.94 1019.27 1019.63 1020.04 1020.49 1020.98 1021.48 1021.99 1022.49 1022.96 1023.40 1023.78 1024.11 1024.39 1024.62 1024.80 1024.95 1025.08 1025.19 1025.31 1025.42 1025.54 1025.67 1025.80 1025.93 1026.07 1026.21 1026.34 1026.48 1026.62 1026.76 1026.91
1015.77 1015.99 1016.20 1016.39 1016.56 1016.72 1016.88 1017.03 1017.20 1017.38 1017.58 1017.83 1018.11 1018.44 1018.81 1019.23 1019.68 1020.15 1020.63 1021.11 1021.57 1022.01 1022.41 1022.77 1023.09 1023.37 1023.61 1023.83 1024.03 1024.22 1024.41 1024.59 1024.77 1024.95 1025.13 1025.32 1025.50 1025.69 1025.87 1026.07 1026.26 1026.47 1026.68
1015.39 1015.51 1015.63 1015.74 1015.83 1015.93 1016.02 1016.12 1016.23 1016.36 1016.52 1016.71 1016.95 1017.23 1017.56 1017.93 1018.33 1018.77 1019.22 1019.68 1020.13 1020.58 1021.00 1021.39 1021.76 1022.10 1022.41 1022.69 1022.96 1023.21 1023.45 1023.68 1023.90 1024.12 1024.33 1024.55 1024.77 1024.99 1025.23 1025.47 1025.73 1025.99 1026.27
Thickness
5653 5653 5652 5650 5647 5643 5639 5634 5629 5623 5618 5613 5607 5601 5595 5589 5583 5577 5570 5563 5556 5548 5542 5535 5528 5521 5514 5507 5501 5495 5489 5484 5482 5481 5475 5470 5464 5460 5456 5452 5448 5444 5440
5640 5640 5639 5638 5635 5632 5628 5623 5618 5612 5607 5602 5595 5589 5583 5577 5570 5564 5557 5550 5543 5535 5528 5521 5513 5506 5499 5493 5486 5480 5473 5468 5463 5462 5459 5454 5449 5446 5443 5439 5435 5430 5425
5627 5626 5625 5624 5622 5619 5615 5610 5605 5600 5594 5588 5582 5576 5570 5563 5557 5550 5543 5536 5528 5521 5514 5507 5499 5492 5484 5477 5471 5464 5458 5452 5447 5443 5441 5438 5435 5431 5429 5426 5421 5415 5409
5613 5613 5611 5610 5608 5604 5600 5596 5592 5587 5581 5575 5568 5562 5556 5549 5542 5535 5528 5521 5513 5506 5499 5492 5485 5478 5470 5463 5457 5450 5444 5438 5432 5427 5424 5422 5418 5415 5411 5408 5408 5402 5395
5600 5599 5597 5594 5592 5589 5585 5581 5576 5572 5567 5560 5553 5546 5540 5534 5528 5521 5514 5507 5499 5490 5483 5476 5470 5463 5457 5450 5444 5437 5430 5424 5418 5413 5409 5405 5401 5397 5392 5388 5386 5385 5381
5587 5585 5582 5579 5576 5573 5569 5565 5561 5556 5550 5544 5538 5532 5525 5519 5513 5507 5500 5492 5484 5477 5469 5462 5455 5449 5442 5436 5430 5424 5417 5410 5404 5399 5393 5388 5383 5377 5372 5366 5361 5361 5361
5573 5570 5567 5564 5561 5557 5553 5549 5545 5540 5534 5528 5523 5517 5511 5505 5499 5492 5485 5477 5470 5462 5455 5448 5441 5434 5428 5422 5416 5409 5402 5395 5389 5383 5376 5369 5363 5358 5353 5349 5341 5334 5330
5559 5556 5553 5551 5547 5542 5538 5534 5529 5524 5519 5513 5507 5501 5495 5489 5483 5477 5470 5462 5454 5447 5440 5434 5427 5420 5414 5409 5403 5396 5388 5380 5374 5368 5360 5353 5345 5338 5331 5325 5320 5316 5313
5548 5544 5541 5538 5533 5528 5524 5519 5514 5509 5503 5497 5491 5485 5480 5473 5468 5461 5454 5446 5439 5432 5425 5419 5412 5406 5401 5396 5390 5382 5375 5367 5359 5351 5343 5336 5328 5320 5312 5305 5298 5292 5292
5538 5533 5528 5524 5520 5515 5510 5504 5498 5493 5487 5481 5474 5468 5463 5457 5452 5446 5439 5432 5424 5417 5410 5404 5398 5392 5386 5381 5374 5366 5359 5353 5345 5337 5329 5320 5312 5303 5294 5284 5275 5268 5262
5524 5518 5514 5509 5505 5500 5494 5488 5482 5476 5470 5463 5456 5450 5445 5440 5436 5430 5424 5417 5410 5403 5396 5389 5383 5378 5372 5365 5358 5350 5343 5337 5329 5320 5313 5305 5296 5287 5277 5267 5257 5247 5239
5508 5503 5498 5493 5489 5484 5478 5472 5466 5460 5453 5446 5439 5432 5427 5422 5419 5414 5409 5402 5396 5388 5381 5375 5368 5362 5356 5349 5341 5334 5326 5318 5310 5302 5295 5287 5279 5270 5261 5251 5241 5231 5221
5492 5486 5481 5476 5472 5467 5463 5456 5449 5444 5438 5431 5424 5418 5411 5406 5402 5398 5392 5386 5380 5373 5366 5360 5353 5347 5339 5331 5324 5316 5307 5299 5291 5283 5276 5268 5260 5252 5244 5236 5228 5218 5210
5475 5469 5464 5459 5454 5449 5446 5442 5437 5430 5424 5418 5411 5404 5397 5390 5385 5381 5376 5370 5364 5357 5350 5343 5336 5329 5321 5314 5305 5297 5288 5280 5271 5264 5257 5249 5241 5233 5225 5217 5209 5202 5196
5458 5453 5448 5444 5439 5433 5429 5425 5422 5418 5414 5408 5401 5395 5386 5379 5374 5369 5362 5354 5348 5341 5332 5324 5316 5309 5302 5294 5286 5278 5270 5261 5253 5245 5237 5230 5223 5215 5207 5199 5190 5182 5176
5443 5437 5433 5428 5423 5418 5412 5406 5404 5400 5397 5393 5387 5381 5374 5369 5362 5355 5348 5340 5333 5325 5315 5306 5298 5291 5284 5276 5268 5261 5253 5244 5236 5228 5219 5211 5204 5197 5190 5182 5174 5166 5160
5431 5425 5419 5414 5409 5404 5399 5394 5387 5382 5379 5375 5370 5365 5359 5353 5347 5340 5332 5324 5317 5308 5297 5289 5282 5274 5267 5259 5252 5244 5236 5228 5219 5210 5202 5194 5186 5179 5172 5165 5158 5151 5145
5414 5410 5405 5400 5395 5390 5385 5380 5375 5369 5362 5355 5351 5347 5342 5336 5330 5323 5315 5306 5296 5287 5280 5273 5265 5258 5251 5243 5235 5227 5219 5211 5203 5194 5185 5177 5170 5162 5156 5149 5143 5136 5132
5397 5393 5389 5384 5379 5374 5368 5363 5358 5352 5346 5339 5330 5326 5323 5317 5311 5304 5297 5287 5279 5271 5263 5256 5249 5241 5234 5226 5219 5211 5203 5195 5187 5179 5171 5163 5156 5148 5142 5135 5129 5124 5118
5378 5375 5371 5366 5360 5355 5350 5345 5339 5334 5328 5321 5315 5309 5301 5295 5289 5284 5277 5269 5262 5255 5247 5240 5233 5225 5218 5211 5203 5195 5187 5180 5172 5164 5157 5150 5143 5136 5129 5123 5117 5111 5107
5359 5355 5351 5347 5342 5338 5333 5328 5323 5317 5311 5305 5300 5292 5288 5281 5275 5268 5260 5253 5246 5240 5233 5225 5218 5210 5203 5195 5188 5180 5173 5166 5159 5152 5144 5137 5130 5123 5117 5111 5105 5100 5095
5339 5336 5332 5328 5324 5319 5314 5310 5304 5299 5293 5287 5280 5273 5272 5264 5257 5250 5244 5238 5231 5225 5219 5211 5204 5197 5190 5182 5175 5167 5160 5154 5147 5139 5133 5126 5119 5112 5105 5099 5093 5089 5084
5318 5315 5311 5307 5303 5299 5293 5289 5284 5279 5274 5268 5262 5255 5251 5246 5240 5234 5228 5222 5216 5210 5204 5197 5190 5184 5177 5171 5164 5157 5150 5144 5137 5129 5122 5115 5108 5101 5094 5088 5083 5078 5073
5297 5294 5291 5287 5282 5278 5275 5270 5265 5260 5255 5249 5244 5239 5234 5229 5224 5218 5212 5206 5200 5194 5188 5182 5177 5171 5165 5158 5152 5146 5140 5134 5127 5120 5113 5106 5099 5092 5085 5078 5073 5069 5064
5275 5273 5270 5267 5263 5259 5255 5251 5247 5242 5237 5232 5227 5222 5217 5212 5207 5201 5196 5191 5185 5179 5174 5168 5163 5158 5152 5147 5141 5135 5129 5123 5117 5111 5104 5097 5090 5083 5076 5070 5064 5059 5054
5254 5252 5250 5246 5243 5239 5235 5232 5228 5224 5219 5214 5209 5205 5200 5196 5191 5186 5180 5175 5170 5165 5160 5155 5151 5146 5140 5135 5130 5124 5119 5113 5107 5101 5095 5088 5082 5075 5068 5062 5056 5050 5045